Flag for U.S.A. Weather past 2 weeks in Santa Fe, New Mexico, U.S.A.

Now
61 °F

Partly sunny.


Feels Like: 61 °F
Forecast: 56 / 68 °F
Wind: 8 mph from South

Location: Santa Fe County Municipal Airport

Current Time: Jul 7, 2015 at 10:25:46 AM

Latest Report: Jul 7, 2015 at 9:53 AM


Visibility: 10 mi

Pressure: 30.03 "Hg (23.35 "Hg at 2132m altitude)

Humidity: 81%

Dew point: 55 °F

Location of Santa FeLocation

Historic Weather in Santa Fe — Graph

°F

Santa Fe temperature yesterday

Maximum temperature yesterday: 80 °F (at 12:53 PM)
Minimum temperature yesterday: 61 °F (at 5:53 AM)
Average temperature yesterday: 68 °F

Past Weeks' High & Low Weather Summary

 TemperatureHumidityPressure
High97 °F (Jun 22, 4:53 PM)93% (Jul 3, 4:53 AM)30.29 "Hg (Jul 3, 4:53 AM)
Low56 °F (Jun 26, 5:53 AM)7% (Jun 22, 4:53 PM)29.74 "Hg (Jun 22, 4:53 PM)
Average73 °F47%29.93 "Hg
* Reported Jun 22 9:53 AM — Jul 7 9:02 AM, Santa Fe, Weather by CustomWeather, © 2015

Note: Actual official high and low records may vary slightly from our data, if they occured in-between our weather recording intervals... More about our weather records

Advertising

Santa Fe weather history for previous 24 hours

 ConditionsComfort  
Time TempWeatherWind HumidityBarometerVisibility
9:02 AM
Tue, Jul 7
60 °FPartly sunny.12 mph83%30.28 "Hg10 mi
8:53 AM60 °FBroken clouds.8 mph86%30.03 "Hg10 mi
7:53 AM59 °FBroken clouds.12 mph87%30.02 "Hg10 mi
6:53 AM58 °FLight rain. Mostly cloudy.17 mph90%29.98 "Hg10 mi
5:53 AM58 °FRain. Fog.7 mph93%30.05 "Hg4 mi
4:53 AM59 °FRain. Fog.12 mph90%30.02 "Hg5 mi
3:53 AM59 °FLight rain. Overcast.9 mph90%29.98 "Hg9 mi
2:53 AM60 °FLight rain. Overcast.3 mph90%29.98 "Hg10 mi
1:53 AM60 °FOvercast.No wind90%29.98 "Hg10 mi
12:53 AM60 °FOvercast.7 mph86%29.96 "Hg10 mi
11:53 PM
Mon, Jul 6
63 °FOvercast.6 mph84%29.96 "Hg10 mi
10:53 PM63 °FLight rain. Overcast.5 mph84%29.95 "Hg10 mi
9:53 PM64 °FLight rain. Overcast.8 mph78%29.93 "Hg10 mi
8:53 PM65 °FOvercast.8 mph70%29.91 "Hg10 mi
7:53 PM67 °FOvercast.12 mph66%29.91 "Hg10 mi
6:53 PM70 °FSunny.10 mph55%29.90 "Hg10 mi
5:53 PM72 °FPassing clouds.9 mph53%29.89 "Hg10 mi
4:53 PM70 °FLight rain. Overcast.10 mph57%29.92 "Hg10 mi
3:53 PM75 °FPartly sunny.12 mph47%29.90 "Hg10 mi
2:53 PM75 °FScattered clouds.20 mph48%29.90 "Hg10 mi
1:53 PM75 °FThundershowers. Overcast.18 mph45%29.90 "Hg10 mi
12:53 PM80 °FScattered clouds.6 mph41%29.88 "Hg10 mi
11:53 AM79 °FSunny.5 mph41%29.90 "Hg10 mi
10:53 AM76 °FSunny.8 mph45%29.91 "Hg10 mi
Weather by CustomWeather, © 2015

See weather overviewHow to use our weather pages